This is the latest recevied weather packets stored in our database for station/object IK2ILW-4. If no packets are shown the sender has not sent any weather packets the latest 10 day(s).
| Time | Temp. | Humidity | Pressure | Rain* | Wind** | Luminosity | Snow |
|---|---|---|---|---|---|---|---|
| 1777577576 | 7.22° C | 85% | 1023 hPa | 1.02 mm | - | 0 W/m² | - |
| 1777577262 | 6.67° C | 85% | 1022.8 hPa | 1.02 mm | - | 0 W/m² | - |
| 1777576978 | 6.67° C | 86% | 1022.8 hPa | 1.02 mm | - | 0 W/m² | - |
| 1777576667 | 7.22° C | 87% | 1022.8 hPa | 1.02 mm | - | 0 W/m² | - |
| 1777576356 | 7.22° C | 85% | 1022.7 hPa | 1.02 mm | - | 0 W/m² | - |
| 1777576076 | 7.22° C | 86% | 1022.7 hPa | 1.02 mm | - | 0 W/m² | - |
| 1777575763 | 7.22° C | 86% | 1022.7 hPa | 1.02 mm | - | 0 W/m² | - |
| 1777575480 | 7.22° C | 85% | 1022.4 hPa | 1.02 mm | - | 0 W/m² | - |
| 1777575166 | 7.22° C | 85% | 1022.4 hPa | 1.02 mm | - | 0 W/m² | - |
| 1777574882 | 7.22° C | 85% | 1022.4 hPa | 1.02 mm | - | 0 W/m² | - |
| 1777574567 | 7.22° C | 84% | 1022.2 hPa | 1.02 mm | - | 0 W/m² | - |
| 1777574256 | 7.22° C | 84% | 1022.2 hPa | 1.02 mm | - | 0 W/m² | - |
| 1777573975 | 7.22° C | 84% | 1022.2 hPa | 1.02 mm | - | 0 W/m² | - |
| 1777573667 | 7.22° C | 83% | 1022.1 hPa | 1.02 mm | - | 0 W/m² | - |
| 1777573357 | 7.22° C | 84% | 1022.1 hPa | 1.02 mm | - | 0 W/m² | - |
| 1777573073 | 7.22° C | 84% | 1022.1 hPa | 1.02 mm | - | 0 W/m² | - |
| 1777572758 | 7.22° C | 85% | 1022 hPa | 1.02 mm | - | 5 W/m² | - |
| 1777572474 | 7.22° C | 84% | 1022 hPa | 1.02 mm | - | 5 W/m² | - |
| 1777572159 | 7.22° C | 84% | 1022 hPa | 1.02 mm | - | 9 W/m² | - |
| 1777571877 | 7.22° C | 84% | 1021.8 hPa | 1.02 mm | - | 12 W/m² | - |
| 1777571562 | 7.22° C | 83% | 1021.8 hPa | 1.02 mm | - | 18 W/m² | - |
| 1777571280 | 7.22° C | 83% | 1021.8 hPa | 1.02 mm | - | 21 W/m² | - |
| 1777570965 | 7.22° C | 83% | 1021.8 hPa | 1.02 mm | - | 30 W/m² | - |
| 1777570681 | 7.22° C | 83% | 1021.8 hPa | 1.02 mm | - | 30 W/m² | - |
| 1777570367 | 7.22° C | 82% | 1021.8 hPa | 1.02 mm | - | 28 W/m² | - |
* Rain since midnight (hover to see other rain measurements)
** Current wind speed in m/s (hover to see current wind gust speed)